Weather in Plaka

Greece     35°27′08″N   24°12′38″E
temp.,
°C
wind,
m/s
gust,
m/s
humid.,
%
clouds,
%
prec.,
mm/h
press.,
hPa
HPBL,
m
6 may, thu
thu600:00+21wsw3451100 0.0 101332
03:00+20w335426 0.0 101225
06:00+20wnw685932 0.0 1013100
09:00+22wnw575593 0.0 1013126
12:00+23nw585390 0.0 1013215
15:00+20nw587469 0.0 1015208
18:00+19nnw1279100 0.0 1015104
21:00+19wsw1278100 0.0 101522
7 may, fri
fri700:00+19sse2269100 0.0 101615
03:00+20se3363100 0.0 101418
06:00+19ese226588 0.0 101316
09:00+21ene225883 0.0 101547
12:00+21e5664100 0.0 1014168
15:00+21ese687099 0.0 1012219
18:00+20ese457237 0.0 1012167
21:00+21ese456744 0.0 101038
8 may, sat
sat800:00+21wsw1166100 0.0 100915
03:00+20nnw227586 0.0 100926
06:00+21se3367100 0.0 100722
09:00+20wnw1173100 0.0 100715
12:00+21nw79754 0.0 1009286
15:00+21wnw710700 0.0 1009318
18:00+20nw57710 0.0 1010185
21:00+19wnw33770 0.0 101231
9 may, sun
sun900:00+19nnw11780 0.0 101411
03:00+20w33650 0.0 101421
06:00+18nnw24836 0.0 1016292
09:00+17n678594 0.1 1019737
12:00+18nnw548245 0.2 1020505
15:00+18n67692 0.2 1020811
18:00+17nne67630 0.0 1020814
21:00+17n66630 0.0 1020759
10 may, mon
mon1000:00+17n57590 0.0 1021983
03:00+15w55693 0.0 1019538
06:00+16nw66680 0.0 1019826
09:00+16nnw66640 0.0 1019927
12:00+17nnw33590 0.0 1019872
15:00+17nnw43610 0.0 1018680
18:00+17ese43600 0.0 1017668
21:00+16ese22620 0.0 1017496